Location: Hilton Head Island
(32.2163°N, 80.7526°W)
Time: 21:38:09
(UTC-05:00)

Tiros 1 despin weight - Pass Details

Date: 18 February 2026
Orbit: 556 x 593 km, 48.2° (Epoch: 7 March)

Event Time Altitude Azimuth Distance (km) Brightness Sun altitude
Rises 20:16:01 0° 318° (NW) 2,732 ? -26.9°
Reaches altitude 10° 20:18:34 10° 332° (NNW) 1,838 ? -27.4°
Enters shadow 20:19:43 16° 344° (NNW) 1,499 ? -27.7°
Maximum altitude 20:22:04 25° 29° (NNE) 1,146 - -28.2°
Drops below altitude 10° 20:25:34 10° 85° (E) 1,845 - -28.9°
Sets 20:28:09 0° 99° (E) 2,745 - -29.5°
